Ellensburg, WA

9:36 PM PDT on June 22, 2017 (GMT -0700)
Bowers

Weather History for KELN - November, 2012

Change the Weather History Date:

Wednesday, November 21, 2012

  Actual Average (KYKM) Record (KYKM)
Temperature  
Mean Temperature 42 °F -  
Max Temperature 50 °F 47 °F 62 °F (1980)
Min Temperature 34 °F 26 °F 0 °F (1985)
Degree Days  
Heating Degree Days 23    
Moisture  
Dew Point 31 °F    
Average Humidity 72    
Maximum Humidity 83    
Minimum Humidity 48    
Precipitation  
Precipitation 0.01 in - - ()
Sea Level Pressure  
Sea Level Pressure 29.87 in    
Wind  
Wind Speed 7 mph (NW)    
Max Wind Speed 24 mph    
Max Gust Speed 30 mph    
Visibility 10 miles    
Events Rain    
Averages and records for this station are not official NWS values.
T = Trace of Precipitation, MM = Missing Value Source: NWS Daily Summary

Daily Weather History Graph

Daily Weather History Graph

Search for Another Location

Airport or City:

Trip Planner

Search our weather history database for the weather conditions in past years. The results will help you decide how hot, cold, wet, or windy it might be!

Date:

Astronomy

Nov. 21, 2012 Rise Set
Actual Time 7:14 AM PST 4:20 PM PST
Civil Twilight 6:41 AM PST 4:54 PM PST
Nautical Twilight 6:03 AM PST 5:32 PM PST
Astronomical Twilight 5:27 AM PST 6:08 PM PST
Moon 1:01 PM PST (11/21) 12:15 AM PST (11/21)
Length of Visible Light 10h 13m
Length of Day
9h 06m
Waxing Gibbous, 63% of the Moon is Illuminated
Nov 21
Waxing Gibbous
Nov 28
Full
Dec 6
Last Quarter
Dec 13
New
Dec 19
First Quarter

Hourly Weather History & Observations

Time (PST) Temp. Windchill Dew Point Humidity Pressure Visibility Wind Dir Wind Speed Gust Speed Precip Events Conditions
12:53 AM 36.0 °F 32.1 °F 30.9 °F 82% 29.62 in 10.0 mi West 4.6 mph - N/A   Mostly Cloudy
1:53 AM 35.1 °F - 30.0 °F 82% 29.61 in 10.0 mi Calm Calm - N/A   Partly Cloudy
2:53 AM 39.0 °F 34.8 °F 33.1 °F 79% 29.61 in 10.0 mi East 5.8 mph - 0.00 in Rain Light Rain
3:53 AM 39.9 °F - 34.0 °F 79% 29.61 in 10.0 mi Calm Calm - 0.00 in Rain Light Rain
4:53 AM 41.0 °F 35.2 °F 35.1 °F 79% 29.60 in 10.0 mi ENE 9.2 mph - 0.00 in   Overcast
5:53 AM 37.9 °F 32.7 °F 33.1 °F 83% 29.65 in 10.0 mi North 6.9 mph - N/A   Mostly Cloudy
6:07 AM 39.2 °F 37.0 °F 33.8 °F 81% 29.63 in 10.0 mi Variable 3.5 mph - N/A   Partly Cloudy
6:53 AM 37.0 °F - 30.9 °F 79% 29.68 in 10.0 mi Calm Calm - N/A   Clear
7:53 AM 35.1 °F 31.0 °F 30.0 °F 82% 29.71 in 10.0 mi NW 4.6 mph - N/A   Clear
8:53 AM 42.1 °F 34.5 °F 33.1 °F 70% 29.76 in 10.0 mi NW 15.0 mph 21.9 mph 0.00 in   Overcast
9:53 AM 43.0 °F 36.4 °F 33.1 °F 68% 29.81 in 10.0 mi NW 12.7 mph - N/A   Mostly Cloudy
10:53 AM 46.9 °F - 32.0 °F 56% 29.83 in 10.0 mi NW 17.3 mph - N/A   Clear
11:53 AM 48.9 °F - 30.9 °F 50% 29.83 in 10.0 mi West 4.6 mph - N/A   Partly Cloudy
12:53 PM 50.0 °F - 30.9 °F 48% 29.84 in 10.0 mi WSW 5.8 mph - N/A   Clear
1:53 PM 48.0 °F - 33.1 °F 56% 29.88 in 10.0 mi WNW 17.3 mph - N/A   Overcast
2:31 PM 42.8 °F 33.3 °F 33.8 °F 70% 29.88 in 10.0 mi NNW 24.2 mph 29.9 mph 0.01 in Rain Light Rain
2:53 PM 41.0 °F 33.5 °F 33.1 °F 73% 29.93 in 10.0 mi NW 13.8 mph 23.0 mph 0.01 in Rain Light Rain
3:53 PM 41.0 °F 36.4 °F 32.0 °F 70% 29.97 in 10.0 mi WNW 6.9 mph - 0.00 in   Overcast
4:53 PM 37.0 °F 31.0 °F 28.9 °F 73% 30.00 in 10.0 mi NW 8.1 mph - N/A   Clear
5:53 PM 37.0 °F 28.9 °F 28.9 °F 73% 30.05 in 10.0 mi WNW 12.7 mph 19.6 mph N/A   Partly Cloudy
6:53 PM 37.0 °F 29.3 °F 28.9 °F 73% 30.08 in 10.0 mi NNW 11.5 mph - N/A   Clear
7:53 PM 37.0 °F 29.8 °F 30.0 °F 76% 30.12 in 10.0 mi NW 10.4 mph - N/A   Clear
8:53 PM 34.0 °F 31.0 °F 28.0 °F 79% 30.15 in 10.0 mi NW 3.5 mph - N/A   Clear
9:53 PM 34.0 °F - 27.0 °F 75% 30.18 in 10.0 mi Calm Calm - N/A   Clear
10:53 PM 35.1 °F 27.9 °F 27.0 °F 72% 30.22 in 10.0 mi NW 9.2 mph - N/A   Clear
11:53 PM 35.1 °F 31.0 °F 27.0 °F 72% 30.25 in 10.0 mi Variable 4.6 mph - N/A   Clear